#timestamp,LO_Frequency,Hit,StdDev 
1624582815.3,286047004.4,Y
1624582835.2,286047000.5,P
1624582855.9,286047000.1,N
1624582875.7,286047002.4,N
1624582895.6,286047000.0,N
1624582915.4,286047002.3,N
1624582935.2,286047000.7,N
1624582955.1,286046999.4,N
1624582956.0,286046999.4,N
1624582975.8,286047000.7,N
1624582995.7,286047000.4,N
1624583015.5,286047001.0,N
1624583035.3,286047001.0,N
1624583055.2,286047000.4,N
1624583075.9,286047000.6,N
1624583095.7,286047000.1,N
1624583115.6,286047000.2,N
1624583135.4,286047002.6,Y
1624583155.3,286046998.1,P
1624583175.1,286046999.3,N
1624583176.0,286046999.3,N
1624583195.8,286046996.8,Y
1624583215.7,286046998.7,P
1624583235.5,286046998.9,P
1624583255.3,286046998.6,P
1624583275.2,286046998.8,Y
1624583295.0,286046998.9,P
1624583295.9,286046998.9,P
1624583315.8,286046998.7,P
1624583335.6,286047000.7,Y
1624583355.4,286047004.2,P
1624583375.3,286047002.7,N
1624583395.1,286047001.6,N
1624583415.9,286047004.3,N
1624583435.7,286047001.7,N
1624583455.5,286047002.7,N
1624583475.4,286047004.0,N
1624583495.2,286047004.1,N
1624583515.0,286047001.3,N
1624583515.9,286047001.3,N
1624583535.8,286047001.5,N
1624583555.6,286047001.6,N
1624583575.4,286047002.5,N
1624583595.3,286047000.2,N
1624583615.1,286047002.7,N
1624583635.9,286047003.8,N
1624583655.7,286047003.2,N
1624583675.5,286047005.9,Y
1624583695.4,286047002.0,P
1624583715.2,286047001.8,P
1624583735.1,286047001.7,P
1624583736.0,286047001.7,Y
1624583755.8,286047000.2,P
1624583775.6,286047000.8,N
1624583795.5,286047000.8,N
1624583815.3,286047000.9,N
1624583835.1,286047000.7,N
1624583855.9,286047000.2,N
1624583875.7,286046998.1,Y
1624583895.6,286046996.6,P
1624583915.4,286046997.3,N
1624583935.2,286046996.2,N
1624583955.1,286046994.0,Y
1624583956.0,286046994.0,P
1624583975.8,286046997.7,N
1624583995.7,286046997.1,N
1624584015.5,286046996.5,N
1624584035.3,286046997.1,N
1624584055.2,286046997.6,N
1624584075.9,286046997.9,N
1624584095.7,286046997.0,N
1624584115.6,286046999.0,N
1624584135.4,286046999.1,N
1624584155.2,286046996.6,N
1624584175.1,286046999.5,N
1624584176.0,286046999.5,N
1624584195.8,286046999.5,N
1624584215.7,286046999.6,N
1624584235.5,286046998.9,N
1624584255.3,286046999.2,N
1624584275.2,286046999.3,N
1624584295.0,286046999.2,N
1624584295.9,286046999.2,N
1624584315.7,286046999.1,N
1624584335.6,286046999.2,N
1624584355.4,286046999.5,N
1624584375.3,286046999.1,N
1624584395.1,286046998.9,N
1624584396.0,286046998.9,N
1624584415.8,286046998.6,N
1624584435.7,286046998.9,N
1624584455.5,286046999.2,N
1624584475.3,286046999.2,N
1624584495.2,286046997.6,N
1624584515.0,286046997.8,N
1624584515.9,286046997.8,N
1624584535.8,286046997.4,N
1624584555.6,286046997.0,Y
1624584575.4,286046998.1,P
1624584595.3,286046998.6,P
1624584615.1,286046997.1,P
1624584635.9,286046997.3,Y
1624584655.7,286046998.7,P
1624584675.5,286046999.5,N
1624584695.4,286046997.2,P
1624584715.2,286046996.5,Y
1624584735.0,286047000.7,P
1624584735.9,286047000.7,N
1624584755.8,286047001.1,N
1624584775.6,286047000.5,N
1624584795.5,286046999.9,N
1624584815.3,286047002.8,Y
1624584835.1,286046999.7,P
1624584855.9,286047002.0,P
1624584875.7,286047002.3,N
1624584895.5,286047001.3,N
1624584915.4,286047000.1,N
1624584935.2,286047000.9,N
1624584955.1,286046999.9,N
1624584956.0,286046999.9,N
1624584975.8,286047002.8,Y
1624584995.6,286047001.0,P
1624585015.5,286046998.2,P
1624585035.3,286046998.8,N
1624585055.1,286047001.1,N
1624585075.9,286046998.3,N
1624585095.7,286047001.0,N
1624585115.6,286046998.5,N
1624585135.4,286047000.7,N
1624585155.2,286047000.3,N
1624585175.1,286047002.6,N
1624585176.0,286047002.6,N
1624585195.8,286047001.0,N
1624585215.6,286047001.5,N
1624585235.5,286046999.9,N
1624585255.3,286047002.2,N
1624585275.2,286047002.3,N
1624585295.9,286047001.1,N
1624585315.7,286047000.9,N
1624585335.6,286046999.9,N
1624585355.4,286046999.8,N
1624585375.2,286047002.5,N
1624585395.1,286047002.8,N
1624585396.0,286047002.8,N
1624585415.8,286047000.6,N
1624585435.7,286046998.1,N
1624585455.5,286047000.5,N
1624585475.3,286047002.6,N
1624585495.2,286047002.6,N
1624585515.0,286046999.9,N
1624585515.9,286046999.9,N
1624585535.7,286047000.6,N
1624585555.6,286047000.5,N
1624585575.4,286047001.9,N
1624585595.3,286047002.5,N
1624585615.1,286047002.2,N
1624585616.0,286047002.2,N
1624585635.8,286047001.5,N
1624585655.7,286047002.0,N
1624585675.5,286047002.1,N
1624585695.3,286047002.3,N
1624585715.2,286047000.0,N
1624585735.0,286047000.0,N
1624585735.9,286047000.0,N
1624585755.8,286047001.2,N
1624585775.6,286047000.5,N
1624585795.4,286047002.6,N
1624585815.3,286046999.7,N
1624585835.1,286047002.1,N
1624585855.9,286047004.4,Y
1624585875.7,286047002.2,P
1624585895.5,286047002.6,P
1624585915.4,286047001.5,N
1624585935.2,286047004.3,Y
1624585955.0,286047002.4,P
1624585955.9,286047002.4,P
1624585975.8,286047002.8,P
1624585995.6,286047000.1,N
1624586015.5,286047000.9,N
1624586035.3,286047000.5,N
1624586055.1,286047000.4,N
1624586075.9,286047000.3,N
1624586095.7,286047000.0,N
1624586115.5,286047002.6,N
1624586135.4,286047000.7,N
1624586185.2,286047000.7,E
1624586195.2,286047000.2,N
1624586215.0,286047002.5,P
1624586215.9,286047002.5,N
1624586235.7,286047002.7,N
1624586255.6,286046999.7,N
1624586275.4,286047002.1,N
1624586295.3,286046999.8,N
1624586315.1,286047002.4,N
1624586316.0,286047002.4,N
1624586335.8,286047002.3,N
1624586355.7,286047002.4,N
1624586375.5,286047000.0,N
1624586395.3,286047000.5,N
